Wetterdaten: Dienstag, 04.01.2011
Datum Zeit Temp. Auen Feucht Auen Luftdruck Regen Richtung Richtung Windben
04.01.2011 00:00 -13,8 C 80 % 1098,5 hPa 0,0 mm - - 0 0,0 km/h (0 Bft)
04.01.2011 00:05 -13,8 C 80 % 1098,5 hPa 0,0 mm - - 0 0,0 km/h (0 Bft)
04.01.2011 00:10 -14,0 C 79 % 1098,3 hPa 0,0 mm - - 0 0,0 km/h (0 Bft)
04.01.2011 00:15 -14,0 C 79 % 1098,4 hPa 0,0 mm - - 0 0,0 km/h (0 Bft)
04.01.2011 00:20 -14,1 C 79 % 1098,4 hPa 0,0 mm - - 0 0,0 km/h (0 Bft)
04.01.2011 00:25 -14,1 C 79 % 1098,4 hPa 0,0 mm - - 0 0,0 km/h (0 Bft)
04.01.2011 00:30 -14,1 C 80 % 1098,4 hPa 0,0 mm - - 0 0,0 km/h (0 Bft)
04.01.2011 00:35 -14,1 C 80 % 1098,5 hPa 0,0 mm - - 0 0,0 km/h (0 Bft)
04.01.2011 00:40 -14,2 C 79 % 1098,2 hPa 0,0 mm - - 0 0,0 km/h (0 Bft)
04.01.2011 00:45 -14,1 C 79 % 1098,3 hPa 0,0 mm - - 0 0,0 km/h (0 Bft)
04.01.2011 00:50 -14,0 C 79 % 1098,1 hPa 0,0 mm - - 0 0,0 km/h (0 Bft)
04.01.2011 00:55 -13,9 C 79 % 1098,2 hPa 0,0 mm - - 0 0,0 km/h (0 Bft)
04.01.2011 01:00 -13,6 C 80 % 1097,9 hPa 0,0 mm - - 0 0,0 km/h (0 Bft)
04.01.2011 01:05 -13,5 C 80 % 1098,0 hPa 0,0 mm - - 0 0,0 km/h (0 Bft)
04.01.2011 01:10 -13,3 C 80 % 1097,6 hPa 0,0 mm - - 0 0,0 km/h (0 Bft)
04.01.2011 01:15 -13,4 C 80 % 1097,6 hPa 0,0 mm - - 0 0,0 km/h (0 Bft)
04.01.2011 01:20 -13,0 C 81 % 1097,5 hPa 0,0 mm - - 0 0,0 km/h (0 Bft)
04.01.2011 01:25 -12,7 C 82 % 1097,2 hPa 0,0 mm - - 0 0,0 km/h (0 Bft)
04.01.2011 01:30 -12,5 C 82 % 1097,3 hPa 0,0 mm - - 0 0,0 km/h (0 Bft)
04.01.2011 01:35 -12,5 C 82 % 1097,2 hPa 0,0 mm - - 0 0,0 km/h (0 Bft)
04.01.2011 01:40 -12,6 C 82 % 1097,0 hPa 0,0 mm - - 0 0,0 km/h (0 Bft)
04.01.2011 01:45 -12,6 C 82 % 1097,0 hPa 0,0 mm - - 0 0,0 km/h (0 Bft)
04.01.2011 01:50 -12,5 C 82 % 1097,0 hPa 0,0 mm - - 0 0,0 km/h (0 Bft)
04.01.2011 01:55 -12,3 C 82 % 1097,0 hPa 0,0 mm - - 0 0,0 km/h (0 Bft)
04.01.2011 02:00 -12,1 C 82 % 1097,0 hPa 0,0 mm - - 0 0,0 km/h (0 Bft)
04.01.2011 02:05 -12,1 C 82 % 1096,7 hPa 0,0 mm - - 0 0,0 km/h (0 Bft)
04.01.2011 02:10 -11,8 C 82 % 1096,9 hPa 0,0 mm - - 0 0,0 km/h (0 Bft)
04.01.2011 02:15 -11,7 C 82 % 1096,8 hPa 0,0 mm - - 0 0,0 km/h (0 Bft)
04.01.2011 02:20 -11,6 C 82 % 1096,5 hPa 0,0 mm - - 0 0,0 km/h (0 Bft)
04.01.2011 02:25 -11,5 C 82 % 1096,6 hPa 0,0 mm - - 0 0,0 km/h (0 Bft)
04.01.2011 02:30 -11,5 C 82 % 1096,8 hPa 0,0 mm - - 0 0,0 km/h (0 Bft)
04.01.2011 02:35 -11,4 C 82 % 1096,4 hPa 0,0 mm - - 0 0,0 km/h (0 Bft)
04.01.2011 02:40 -11,4 C 82 % 1096,6 hPa 0,0 mm - - 0 0,0 km/h (0 Bft)
04.01.2011 02:45 -11,4 C 83 % 1096,5 hPa 0,0 mm - - 0 0,0 km/h (0 Bft)
04.01.2011 02:50 -11,4 C 83 % 1096,4 hPa 0,0 mm - - 0 0,0 km/h (0 Bft)
04.01.2011 02:55 -11,4 C 83 % 1096,5 hPa 0,0 mm - - 0 0,0 km/h (0 Bft)
04.01.2011 03:00 -11,3 C 83 % 1096,5 hPa 0,0 mm - - 0 0,0 km/h (0 Bft)
04.01.2011 03:05 -11,3 C 83 % 1096,4 hPa 0,0 mm - - 0 0,0 km/h (0 Bft)
04.01.2011 03:10 -11,2 C 83 % 1096,4 hPa 0,0 mm - - 0 0,0 km/h (0 Bft)
04.01.2011 03:15 -11,2 C 83 % 1096,3 hPa 0,0 mm - - 0 0,0 km/h (0 Bft)
04.01.2011 03:20 -11,2 C 83 % 1096,3 hPa 0,0 mm - - 0 0,0 km/h (0 Bft)
04.01.2011 03:25 -11,2 C 83 % 1096,2 hPa 0,0 mm - - 0 0,0 km/h (0 Bft)
04.01.2011 03:30 -11,2 C 83 % 1096,2 hPa 0,0 mm - - 0 0,0 km/h (0 Bft)
04.01.2011 03:35 -11,2 C 83 % 1096,2 hPa 0,0 mm - - 0 0,0 km/h (0 Bft)
04.01.2011 03:40 -11,3 C 83 % 1096,2 hPa 0,0 mm - - 0 0,0 km/h (0 Bft)
04.01.2011 03:45 -11,4 C 83 % 1096,2 hPa 0,0 mm - - 0 0,0 km/h (0 Bft)
04.01.2011 03:50 -11,5 C 83 % 1096,3 hPa 0,0 mm - - 0 0,0 km/h (0 Bft)
04.01.2011 03:55 -11,6 C 83 % 1096,3 hPa 0,0 mm - - 0 0,0 km/h (0 Bft)
04.01.2011 04:00 -11,6 C 82 % 1096,2 hPa 0,0 mm - - 0 0,0 km/h (0 Bft)
04.01.2011 04:05 -11,6 C 82 % 1096,2 hPa 0,0 mm - - 0 0,0 km/h (0 Bft)
04.01.2011 04:10 -11,9 C 82 % 1096,4 hPa 0,0 mm - - 0 0,0 km/h (0 Bft)
04.01.2011 04:15 -12,1 C 82 % 1096,0 hPa 0,0 mm - - 0 0,0 km/h (0 Bft)
04.01.2011 04:20 -12,2 C 82 % 1096,1 hPa 0,0 mm - - 0 0,0 km/h (0 Bft)
04.01.2011 04:25 -12,4 C 82 % 1096,1 hPa 0,0 mm - - 0 0,0 km/h (0 Bft)
04.01.2011 04:30 -12,5 C 82 % 1096,3 hPa 0,0 mm - - 0 0,0 km/h (0 Bft)
04.01.2011 04:35 -12,6 C 81 % 1096,4 hPa 0,0 mm - - 0 0,0 km/h (0 Bft)
04.01.2011 04:40 -12,9 C 81 % 1096,4 hPa 0,0 mm - - 0 0,0 km/h (0 Bft)
04.01.2011 04:45 -13,2 C 80 % 1096,5 hPa 0,0 mm - - 0 0,0 km/h (0 Bft)
04.01.2011 04:50 -13,3 C 80 % 1096,7 hPa 0,0 mm - - 0 0,0 km/h (0 Bft)
04.01.2011 04:55 -13,4 C 80 % 1096,7 hPa 0,0 mm - - 0 0,0 km/h (0 Bft)
04.01.2011 05:00 -13,5 C 80 % 1096,7 hPa 0,0 mm - - 0 0,0 km/h (0 Bft)
04.01.2011 05:05 -13,5 C 80 % 1096,7 hPa 0,0 mm - - 0 0,0 km/h (0 Bft)
04.01.2011 05:10 -14,1 C 80 % 1096,8 hPa 0,0 mm - - 0 0,0 km/h (0 Bft)
04.01.2011 05:15 -14,2 C 80 % 1096,8 hPa 0,0 mm - - 0 0,0 km/h (0 Bft)
04.01.2011 05:20 -14,1 C 80 % 1096,8 hPa 0,0 mm - - 0 0,0 km/h (0 Bft)
04.01.2011 05:25 -14,3 C 80 % 1097,0 hPa 0,0 mm - - 0 0,0 km/h (0 Bft)
04.01.2011 05:30 -14,2 C 80 % 1096,9 hPa 0,0 mm - - 0 0,0 km/h (0 Bft)
04.01.2011 05:35 -14,1 C 80 % 1096,9 hPa 0,0 mm - - 0 0,0 km/h (0 Bft)
04.01.2011 05:40 -14,4 C 79 % 1096,8 hPa 0,0 mm - - 0 0,0 km/h (0 Bft)
04.01.2011 05:45 -14,6 C 79 % 1096,8 hPa 0,0 mm - - 0 0,0 km/h (0 Bft)
04.01.2011 05:50 -14,7 C 79 % 1096,9 hPa 0,0 mm - - 0 0,0 km/h (0 Bft)
04.01.2011 05:55 -14,7 C 79 % 1096,8 hPa 0,0 mm - - 0 0,0 km/h (0 Bft)
04.01.2011 06:00 -14,9 C 79 % 1096,9 hPa 0,0 mm - - 0 0,0 km/h (0 Bft)
04.01.2011 06:05 -14,9 C 79 % 1096,6 hPa 0,0 mm - - 0 0,0 km/h (0 Bft)
04.01.2011 06:10 -14,4 C 79 % 1096,5 hPa 0,0 mm - - 0 0,0 km/h (0 Bft)
04.01.2011 06:15 -14,4 C 79 % 1096,7 hPa 0,0 mm - - 0 0,0 km/h (0 Bft)
04.01.2011 06:20 -14,6 C 79 % 1096,8 hPa 0,0 mm - - 0 0,0 km/h (0 Bft)
04.01.2011 06:25 -14,8 C 79 % 1096,7 hPa 0,0 mm - - 0 0,0 km/h (0 Bft)
04.01.2011 06:30 -14,9 C 79 % 1096,7 hPa 0,0 mm - - 0 0,0 km/h (0 Bft)
04.01.2011 06:35 -14,9 C 79 % 1096,6 hPa 0,0 mm - - 0 0,0 km/h (0 Bft)
04.01.2011 06:40 -15,2 C 78 % 1096,8 hPa 0,0 mm - - 0 0,0 km/h (0 Bft)
04.01.2011 06:45 -15,7 C 78 % 1097,0 hPa 0,0 mm - - 0 0,0 km/h (0 Bft)
04.01.2011 06:50 -16,2 C 77 % 1097,1 hPa 0,0 mm - - 0 0,0 km/h (0 Bft)
04.01.2011 06:55 -16,3 C 78 % 1097,1 hPa 0,0 mm - - 0 0,0 km/h (0 Bft)
04.01.2011 07:00 -16,3 C 78 % 1097,2 hPa 0,0 mm - - 0 0,0 km/h (0 Bft)
04.01.2011 07:05 -16,3 C 78 % 1097,1 hPa 0,0 mm - - 0 0,0 km/h (0 Bft)
04.01.2011 07:10 -16,2 C 78 % 1097,0 hPa 0,0 mm - - 0 0,0 km/h (0 Bft)
04.01.2011 07:15 -16,0 C 78 % 1097,2 hPa 0,0 mm - - 0 0,0 km/h (0 Bft)
04.01.2011 07:20 -16,0 C 78 % 1097,1 hPa 0,0 mm - - 0 0,0 km/h (0 Bft)
04.01.2011 07:25 -16,0 C 78 % 1097,2 hPa 0,0 mm - - 0 0,0 km/h (0 Bft)
04.01.2011 07:30 -16,2 C 77 % 1097,1 hPa 0,0 mm - - 0 0,0 km/h (0 Bft)
04.01.2011 07:35 -16,5 C 77 % 1097,2 hPa 0,0 mm - - 0 0,0 km/h (0 Bft)
04.01.2011 07:40 -16,7 C 77 % 1097,4 hPa 0,0 mm - - 0 0,0 km/h (0 Bft)
04.01.2011 07:45 -16,8 C 77 % 1097,5 hPa 0,0 mm - - 0 0,0 km/h (0 Bft)
04.01.2011 07:50 -16,9 C 77 % 1097,5 hPa 0,0 mm - - 0 0,0 km/h (0 Bft)
04.01.2011 07:55 -17,0 C 77 % 1097,6 hPa 0,0 mm - - 0 0,0 km/h (0 Bft)
04.01.2011 08:00 -16,6 C 77 % 1097,3 hPa 0,0 mm - - 0 0,0 km/h (0 Bft)
04.01.2011 08:05 -16,6 C 77 % 1097,6 hPa 0,0 mm - - 0 0,0 km/h (0 Bft)
04.01.2011 08:10 -17,0 C 77 % 1097,6 hPa 0,0 mm - - 0 0,0 km/h (0 Bft)
04.01.2011 08:15 -17,1 C 77 % 1097,7 hPa 0,0 mm - - 0 0,0 km/h (0 Bft)
04.01.2011 08:20 -17,1 C 77 % 1097,6 hPa 0,0 mm - - 0 0,0 km/h (0 Bft)
04.01.2011 08:25 -17,3 C 77 % 1097,6 hPa 0,0 mm - - 0 0,0 km/h (0 Bft)
04.01.2011 08:30 -17,3 C 77 % 1097,9 hPa 0,0 mm - - 0 0,0 km/h (0 Bft)
04.01.2011 08:35 -17,1 C 77 % 1097,8 hPa 0,0 mm - - 0 0,0 km/h (0 Bft)
04.01.2011 08:40 -16,8 C 77 % 1097,7 hPa 0,0 mm - - 0 0,0 km/h (0 Bft)
04.01.2011 08:45 -16,7 C 77 % 1097,7 hPa 0,0 mm - - 0 0,0 km/h (0 Bft)
04.01.2011 08:50 -17,0 C 77 % 1097,7 hPa 0,0 mm - - 0 0,0 km/h (0 Bft)
04.01.2011 08:55 -17,0 C 77 % 1097,8 hPa 0,0 mm - - 0 0,0 km/h (0 Bft)
04.01.2011 09:00 -17,0 C 77 % 1097,9 hPa 0,0 mm - - 0 0,0 km/h (0 Bft)
04.01.2011 09:05 -17,0 C 77 % 1097,7 hPa 0,0 mm - - 0 0,0 km/h (0 Bft)
04.01.2011 09:10 -15,6 C 79 % 1097,5 hPa 0,0 mm - - 0 0,0 km/h (0 Bft)
04.01.2011 09:15 -15,0 C 80 % 1097,1 hPa 0,0 mm - - 0 0,0 km/h (0 Bft)
04.01.2011 09:20 -14,8 C 80 % 1097,1 hPa 0,0 mm - - 0 0,0 km/h (0 Bft)
04.01.2011 09:25 -15,0 C 80 % 1097,2 hPa 0,0 mm - - 0 0,0 km/h (0 Bft)
04.01.2011 09:30 -15,1 C 79 % 1097,3 hPa 0,0 mm - - 0 0,0 km/h (0 Bft)
04.01.2011 09:35 -15,1 C 79 % 1097,3 hPa 0,0 mm - - 0 0,0 km/h (0 Bft)
04.01.2011 09:40 -15,0 C 79 % 1097,2 hPa 0,0 mm - - 0 0,0 km/h (0 Bft)
04.01.2011 09:45 -14,6 C 80 % 1097,1 hPa 0,0 mm - - 0 0,0 km/h (0 Bft)
04.01.2011 09:50 -13,9 C 81 % 1097,1 hPa 0,0 mm - - 0 0,0 km/h (0 Bft)
04.01.2011 09:55 -13,0 C 82 % 1096,6 hPa 0,0 mm - - 0 0,0 km/h (0 Bft)
04.01.2011 10:00 -12,2 C 83 % 1096,4 hPa 0,0 mm - - 0 0,0 km/h (0 Bft)
04.01.2011 10:05 -12,2 C 83 % 1096,4 hPa 0,0 mm - - 0 0,0 km/h (0 Bft)
04.01.2011 10:10 -11,3 C 82 % 1096,4 hPa 0,0 mm - - 0 0,0 km/h (0 Bft)
04.01.2011 10:15 -11,4 C 80 % 1096,1 hPa 0,0 mm - - 0 0,0 km/h (0 Bft)
04.01.2011 10:20 -11,2 C 82 % 1096,4 hPa 0,0 mm - - 0 0,0 km/h (0 Bft)
04.01.2011 10:25 -9,6 C 85 % 1095,8 hPa 0,0 mm - - 0 0,0 km/h (0 Bft)
04.01.2011 10:30 -8,3 C 86 % 1095,4 hPa 0,0 mm - - 0 0,0 km/h (0 Bft)
04.01.2011 10:35 -7,6 C 85 % 1095,2 hPa 0,0 mm - - 0 0,0 km/h (0 Bft)
04.01.2011 10:40 -7,6 C 83 % 1094,9 hPa 0,0 mm - - 0 0,0 km/h (0 Bft)
04.01.2011 10:45 -7,8 C 84 % 1095,2 hPa 0,0 mm - - 0 0,0 km/h (0 Bft)
04.01.2011 10:50 -6,7 C 86 % 1094,7 hPa 0,0 mm - - 0 0,0 km/h (0 Bft)
04.01.2011 10:55 -5,7 C 88 % 1094,6 hPa 0,0 mm - - 0 0,0 km/h (0 Bft)
04.01.2011 11:00 -6,3 C 73 % 1094,6 hPa 0,0 mm - - 0 0,0 km/h (0 Bft)
04.01.2011 11:05 -6,3 C 73 % 1094,5 hPa 0,0 mm - - 0 0,0 km/h (0 Bft)
04.01.2011 11:10 -6,9 C 67 % 1094,8 hPa 0,0 mm - - 0 0,0 km/h (0 Bft)
04.01.2011 11:15 -6,0 C 73 % 1094,4 hPa 0,0 mm - - 0 0,0 km/h (0 Bft)
04.01.2011 11:20 -4,5 C 72 % 1093,9 hPa 0,0 mm - - 0 0,0 km/h (0 Bft)
04.01.2011 11:25 -4,6 C 57 % 1093,8 hPa 0,0 mm - - 0 0,0 km/h (0 Bft)
04.01.2011 11:30 -4,5 C 63 % 1093,8 hPa 0,0 mm - - 0 0,0 km/h (0 Bft)
04.01.2011 11:35 -4,9 C 60 % 1094,1 hPa 0,0 mm - - 0 0,0 km/h (0 Bft)
04.01.2011 11:40 -5,1 C 66 % 1093,8 hPa 0,0 mm - - 0 0,0 km/h (0 Bft)
04.01.2011 11:45 -6,3 C 59 % 1094,0 hPa 0,0 mm - - 0 0,0 km/h (0 Bft)
04.01.2011 11:50 -7,2 C 61 % 1094,2 hPa 0,0 mm - - 0 0,0 km/h (0 Bft)
04.01.2011 11:55 -7,4 C 64 % 1094,5 hPa 0,0 mm - - 0 0,0 km/h (0 Bft)
04.01.2011 12:00 -7,0 C 63 % 1094,1 hPa 0,0 mm - - 0 0,0 km/h (0 Bft)
04.01.2011 12:05 -7,0 C 63 % 1094,1 hPa 0,0 mm - - 0 0,0 km/h (0 Bft)
04.01.2011 12:10 -5,3 C 66 % 1093,4 hPa 0,0 mm - - 0 0,0 km/h (0 Bft)
04.01.2011 12:15 -5,8 C 58 % 1093,4 hPa 0,0 mm - - 0 0,0 km/h (0 Bft)
04.01.2011 12:20 -6,5 C 62 % 1093,6 hPa 0,0 mm - - 0 0,0 km/h (0 Bft)
04.01.2011 12:25 -6,3 C 63 % 1093,6 hPa 0,0 mm - - 0 0,0 km/h (0 Bft)
04.01.2011 12:30 -7,2 C 63 % 1093,6 hPa 0,0 mm - - 0 0,0 km/h (0 Bft)
04.01.2011 12:35 -6,8 C 67 % 1093,3 hPa 0,0 mm - - 0 0,0 km/h (0 Bft)
04.01.2011 12:40 -5,7 C 68 % 1093,0 hPa 0,0 mm - - 0 0,0 km/h (0 Bft)
04.01.2011 12:45 -5,9 C 63 % 1092,9 hPa 0,0 mm - - 0 0,0 km/h (0 Bft)
04.01.2011 12:50 -6,7 C 64 % 1093,0 hPa 0,0 mm - - 0 0,0 km/h (0 Bft)
04.01.2011 12:55 -6,8 C 64 % 1093,0 hPa 0,0 mm - - 0 0,0 km/h (0 Bft)
04.01.2011 13:00 -6,5 C 66 % 1092,9 hPa 0,0 mm - - 0 0,0 km/h (0 Bft)
04.01.2011 13:05 -6,5 C 66 % 1092,9 hPa 0,0 mm - - 0 0,0 km/h (0 Bft)
04.01.2011 13:10 -6,8 C 70 % 1093,3 hPa 0,0 mm - - 0 0,0 km/h (0 Bft)
04.01.2011 13:15 -6,9 C 70 % 1092,8 hPa 0,0 mm - - 0 0,0 km/h (0 Bft)
04.01.2011 13:20 -6,7 C 70 % 1093,0 hPa 0,0 mm - - 0 0,0 km/h (0 Bft)
04.01.2011 13:25 -6,5 C 70 % 1092,8 hPa 0,0 mm - - 0 0,0 km/h (0 Bft)
04.01.2011 13:30 -6,6 C 69 % 1092,9 hPa 0,0 mm - - 0 0,0 km/h (0 Bft)
04.01.2011 13:35 -6,5 C 69 % 1092,8 hPa 0,0 mm - - 0 0,0 km/h (0 Bft)
04.01.2011 13:40 -6,7 C 70 % 1092,9 hPa 0,0 mm - - 0 0,0 km/h (0 Bft)
04.01.2011 13:45 -6,8 C 70 % 1092,8 hPa 0,0 mm - - 0 0,0 km/h (0 Bft)
04.01.2011 13:50 -6,7 C 72 % 1092,8 hPa 0,0 mm - - 0 0,0 km/h (0 Bft)
04.01.2011 13:55 -6,5 C 70 % 1092,9 hPa 0,0 mm - - 0 0,0 km/h (0 Bft)
04.01.2011 14:00 -6,7 C 71 % 1092,7 hPa 0,0 mm - - 0 0,0 km/h (0 Bft)
04.01.2011 14:05 -6,7 C 71 % 1092,7 hPa 0,0 mm - - 0 0,0 km/h (0 Bft)
04.01.2011 14:10 -6,4 C 72 % 1092,6 hPa 0,0 mm - - 0 0,0 km/h (0 Bft)
04.01.2011 14:15 -6,2 C 71 % 1092,6 hPa 0,0 mm - - 0 0,0 km/h (0 Bft)
04.01.2011 14:20 -6,2 C 71 % 1092,7 hPa 0,0 mm - - 0 0,0 km/h (0 Bft)
04.01.2011 14:25 -6,3 C 71 % 1092,6 hPa 0,0 mm - - 0 0,0 km/h (0 Bft)
04.01.2011 14:30 -6,2 C 71 % 1092,6 hPa 0,0 mm - - 0 0,0 km/h (0 Bft)
04.01.2011 14:35 -6,0 C 71 % 1092,5 hPa 0,0 mm - - 0 0,0 km/h (0 Bft)
04.01.2011 14:40 -5,6 C 71 % 1092,3 hPa 0,0 mm - - 0 0,0 km/h (0 Bft)
04.01.2011 14:45 -5,4 C 70 % 1092,3 hPa 0,0 mm - - 0 0,0 km/h (0 Bft)
04.01.2011 14:50 -5,6 C 69 % 1092,2 hPa 0,0 mm - - 0 0,0 km/h (0 Bft)
04.01.2011 14:55 -5,9 C 69 % 1092,3 hPa 0,0 mm - - 0 0,0 km/h (0 Bft)
04.01.2011 15:00 -6,3 C 70 % 1092,4 hPa 0,0 mm - - 0 0,0 km/h (0 Bft)
04.01.2011 15:05 -6,3 C 70 % 1092,2 hPa 0,0 mm - - 0 0,0 km/h (0 Bft)
04.01.2011 15:10 -7,1 C 71 % 1092,5 hPa 0,0 mm - - 0 0,0 km/h (0 Bft)
04.01.2011 15:15 -7,4 C 72 % 1092,6 hPa 0,0 mm - - 0 0,0 km/h (0 Bft)
04.01.2011 15:20 -7,5 C 73 % 1092,6 hPa 0,0 mm - - 0 0,0 km/h (0 Bft)
04.01.2011 15:25 -7,7 C 74 % 1092,8 hPa 0,0 mm - - 0 0,0 km/h (0 Bft)
04.01.2011 15:30 -7,9 C 74 % 1092,8 hPa 0,0 mm - - 0 0,0 km/h (0 Bft)
04.01.2011 15:35 -8,0 C 75 % 1092,8 hPa 0,0 mm - - 0 0,0 km/h (0 Bft)
04.01.2011 15:40 -8,1 C 76 % 1092,8 hPa 0,0 mm - - 0 0,0 km/h (0 Bft)
04.01.2011 15:45 -8,2 C 76 % 1092,6 hPa 0,0 mm - - 0 0,0 km/h (0 Bft)
04.01.2011 15:50 -8,5 C 76 % 1092,9 hPa 0,0 mm - - 0 0,0 km/h (0 Bft)
04.01.2011 15:55 -8,8 C 76 % 1092,8 hPa 0,0 mm - - 0 0,0 km/h (0 Bft)
04.01.2011 16:00 -9,0 C 76 % 1092,8 hPa 0,0 mm - - 0 0,0 km/h (0 Bft)
04.01.2011 16:05 -9,0 C 76 % 1092,7 hPa 0,0 mm - - 0 0,0 km/h (0 Bft)
04.01.2011 16:10 -9,6 C 76 % 1092,8 hPa 0,0 mm - - 0 0,0 km/h (0 Bft)
04.01.2011 16:15 -9,9 C 76 % 1092,8 hPa 0,0 mm - - 0 0,0 km/h (0 Bft)
04.01.2011 16:20 -10,1 C 76 % 1092,9 hPa 0,0 mm - - 0 0,0 km/h (0 Bft)
04.01.2011 16:25 -10,3 C 78 % 1093,0 hPa 0,0 mm - - 0 0,0 km/h (0 Bft)
04.01.2011 16:30 -10,3 C 81 % 1093,0 hPa 0,0 mm - - 0 0,0 km/h (0 Bft)
04.01.2011 16:35 -10,3 C 80 % 1093,0 hPa 0,0 mm - - 0 0,0 km/h (0 Bft)
04.01.2011 16:40 -10,5 C 80 % 1092,9 hPa 0,0 mm - - 0 0,0 km/h (0 Bft)
04.01.2011 16:45 -10,9 C 79 % 1093,2 hPa 0,0 mm - - 0 0,0 km/h (0 Bft)
04.01.2011 16:50 -11,5 C 77 % 1093,6 hPa 0,0 mm - - 0 0,0 km/h (0 Bft)
04.01.2011 16:55 -11,8 C 78 % 1093,3 hPa 0,0 mm - - 0 0,0 km/h (0 Bft)
04.01.2011 17:00 -12,0 C 78 % 1093,7 hPa 0,0 mm - - 0 0,0 km/h (0 Bft)
04.01.2011 17:05 -12,0 C 78 % 1093,8 hPa 0,0 mm - - 0 0,0 km/h (0 Bft)
04.01.2011 17:10 -12,0 C 80 % 1093,5 hPa 0,0 mm - - 0 0,0 km/h (0 Bft)
04.01.2011 17:15 -11,8 C 81 % 1093,5 hPa 0,0 mm - - 0 0,0 km/h (0 Bft)
04.01.2011 17:20 -11,7 C 81 % 1093,3 hPa 0,0 mm - - 0 0,0 km/h (0 Bft)
04.01.2011 17:25 -11,6 C 82 % 1093,4 hPa 0,0 mm - - 0 0,0 km/h (0 Bft)
04.01.2011 17:30 -11,5 C 81 % 1093,3 hPa 0,0 mm - - 0 0,0 km/h (0 Bft)
04.01.2011 17:35 -11,6 C 81 % 1093,3 hPa 0,0 mm - - 0 0,0 km/h (0 Bft)
04.01.2011 17:40 -11,7 C 81 % 1093,1 hPa 0,0 mm - - 0 0,0 km/h (0 Bft)
04.01.2011 17:45 -11,7 C 81 % 1093,1 hPa 0,0 mm - - 0 0,0 km/h (0 Bft)
04.01.2011 17:50 -11,5 C 82 % 1092,9 hPa 0,0 mm W 270 1,1 km/h (1 Bft)
04.01.2011 17:55 -11,1 C 84 % 1092,9 hPa 0,0 mm W 270 1,1 km/h (1 Bft)
04.01.2011 18:00 -10,6 C 85 % 1092,9 hPa 0,0 mm W 270 1,1 km/h (1 Bft)
04.01.2011 18:05 -10,6 C 85 % 1092,8 hPa 0,0 mm - - 0 0,0 km/h (0 Bft)
04.01.2011 18:10 -10,7 C 83 % 1093,1 hPa 0,0 mm W 270 1,1 km/h (1 Bft)
04.01.2011 18:15 -11,2 C 82 % 1093,1 hPa 0,0 mm W 270 1,1 km/h (1 Bft)
04.01.2011 18:20 -11,4 C 82 % 1093,0 hPa 0,0 mm W 270 1,1 km/h (1 Bft)
04.01.2011 18:25 -11,5 C 82 % 1093,0 hPa 0,0 mm - - 0 0,0 km/h (0 Bft)
04.01.2011 18:30 -11,6 C 82 % 1093,2 hPa 0,0 mm - - 0 0,0 km/h (0 Bft)
04.01.2011 18:35 -11,7 C 82 % 1093,1 hPa 0,0 mm - - 0 0,0 km/h (0 Bft)
04.01.2011 18:40 -11,9 C 81 % 1092,8 hPa 0,0 mm - - 0 0,0 km/h (0 Bft)
04.01.2011 18:45 -12,2 C 81 % 1093,2 hPa 0,0 mm - - 0 0,0 km/h (0 Bft)
04.01.2011 18:50 -12,3 C 82 % 1093,1 hPa 0,0 mm - - 0 0,0 km/h (0 Bft)
04.01.2011 18:55 -12,4 C 82 % 1093,0 hPa 0,0 mm - - 0 0,0 km/h (0 Bft)
04.01.2011 19:00 -12,3 C 83 % 1092,8 hPa 0,0 mm - - 0 0,0 km/h (0 Bft)
04.01.2011 19:05 -12,3 C 83 % 1092,8 hPa 0,0 mm - - 0 0,0 km/h (0 Bft)
04.01.2011 19:10 -12,3 C 83 % 1093,0 hPa 0,0 mm - - 0 0,0 km/h (0 Bft)
04.01.2011 19:15 -12,3 C 83 % 1093,3 hPa 0,0 mm - - 0 0,0 km/h (0 Bft)
04.01.2011 19:20 -12,5 C 82 % 1093,3 hPa 0,0 mm - - 0 0,0 km/h (0 Bft)
04.01.2011 19:25 -12,5 C 83 % 1093,4 hPa 0,0 mm SW 225 1,1 km/h (1 Bft)
04.01.2011 19:30 -12,4 C 83 % 1093,5 hPa 0,0 mm SW 225 1,1 km/h (1 Bft)
04.01.2011 19:35 -12,4 C 83 % 1093,5 hPa 0,0 mm SW 225 1,1 km/h (1 Bft)
04.01.2011 19:40 -12,8 C 82 % 1093,6 hPa 0,0 mm - - 0 0,0 km/h (0 Bft)
04.01.2011 19:45 -12,9 C 82 % 1093,8 hPa 0,0 mm - - 0 0,0 km/h (0 Bft)
04.01.2011 19:50 -13,0 C 82 % 1093,9 hPa 0,0 mm - - 0 0,0 km/h (0 Bft)
04.01.2011 19:55 -13,0 C 82 % 1093,9 hPa 0,0 mm - - 0 0,0 km/h (0 Bft)
04.01.2011 20:00 -13,2 C 82 % 1094,1 hPa 0,0 mm - - 0 0,0 km/h (0 Bft)
04.01.2011 20:05 -13,2 C 82 % 1094,2 hPa 0,0 mm - - 0 0,0 km/h (0 Bft)
04.01.2011 20:10 -13,2 C 82 % 1094,2 hPa 0,0 mm - - 0 0,0 km/h (0 Bft)
04.01.2011 20:15 -13,1 C 82 % 1094,4 hPa 0,0 mm - - 0 0,0 km/h (0 Bft)
04.01.2011 20:20 -13,3 C 82 % 1094,2 hPa 0,0 mm - - 0 0,0 km/h (0 Bft)
04.01.2011 20:25 -13,4 C 82 % 1094,0 hPa 0,0 mm - - 0 0,0 km/h (0 Bft)
04.01.2011 20:30 -13,2 C 83 % 1094,1 hPa 0,0 mm - - 0 0,0 km/h (0 Bft)
04.01.2011 20:35 -12,7 C 84 % 1094,0 hPa 0,0 mm SW 225 3,6 km/h (1 Bft)
04.01.2011 20:36 -12,6 C 84 % 1093,9 hPa 0,0 mm - - 0 0,0 km/h (0 Bft)
04.01.2011 20:41 -12,7 C 83 % 1093,6 hPa 0,0 mm - - 0 0,0 km/h (0 Bft)
04.01.2011 20:45 -13,0 C 82 % 1093,5 hPa 0,0 mm - - 0 0,0 km/h (0 Bft)
04.01.2011 20:50 -13,0 C 82 % 1093,5 hPa 0,0 mm - - 0 0,0 km/h (0 Bft)
04.01.2011 20:55 -12,9 C 82 % 1093,5 hPa 0,0 mm - - 0 0,0 km/h (0 Bft)
04.01.2011 21:00 -12,9 C 83 % 1093,5 hPa 0,0 mm - - 0 0,0 km/h (0 Bft)
04.01.2011 21:05 -12,9 C 83 % 1093,5 hPa 0,0 mm - - 0 0,0 km/h (0 Bft)
04.01.2011 21:10 -12,5 C 84 % 1093,4 hPa 0,0 mm SW 225 1,1 km/h (1 Bft)
04.01.2011 21:15 -12,5 C 84 % 1093,4 hPa 0,0 mm SW 225 2,5 km/h (1 Bft)
04.01.2011 21:20 -12,8 C 83 % 1093,2 hPa 0,0 mm SW 225 2,5 km/h (1 Bft)
04.01.2011 21:25 -13,0 C 82 % 1093,1 hPa 0,0 mm - - 0 0,0 km/h (0 Bft)
04.01.2011 21:30 -13,0 C 83 % 1093,0 hPa 0,0 mm - - 0 0,0 km/h (0 Bft)
04.01.2011 21:35 -12,7 C 84 % 1092,9 hPa 0,0 mm - - 0 0,0 km/h (0 Bft)
04.01.2011 21:40 -12,4 C 85 % 1092,9 hPa 0,0 mm - - 0 0,0 km/h (0 Bft)
04.01.2011 21:45 -12,1 C 85 % 1092,7 hPa 0,0 mm - - 0 0,0 km/h (0 Bft)
04.01.2011 21:50 -12,0 C 85 % 1092,5 hPa 0,0 mm - - 0 0,0 km/h (0 Bft)
04.01.2011 21:55 -12,3 C 84 % 1092,7 hPa 0,0 mm - - 0 0,0 km/h (0 Bft)
04.01.2011 22:00 -12,5 C 83 % 1092,9 hPa 0,0 mm - - 0 0,0 km/h (0 Bft)
04.01.2011 22:05 -12,5 C 83 % 1092,8 hPa 0,0 mm - - 0 0,0 km/h (0 Bft)
04.01.2011 22:10 -12,6 C 83 % 1092,8 hPa 0,0 mm - - 0 0,0 km/h (0 Bft)
04.01.2011 22:15 -12,7 C 83 % 1092,9 hPa 0,0 mm - - 0 0,0 km/h (0 Bft)
04.01.2011 22:20 -12,7 C 82 % 1093,1 hPa 0,0 mm - - 0 0,0 km/h (0 Bft)
04.01.2011 22:25 -12,5 C 83 % 1093,0 hPa 0,0 mm - - 0 0,0 km/h (0 Bft)
04.01.2011 22:30 -12,2 C 84 % 1092,8 hPa 0,0 mm - - 0 0,0 km/h (0 Bft)
04.01.2011 22:35 -12,0 C 84 % 1092,7 hPa 0,0 mm - - 0 0,0 km/h (0 Bft)
04.01.2011 22:40 -12,1 C 83 % 1092,8 hPa 0,0 mm - - 0 0,0 km/h (0 Bft)
04.01.2011 22:45 -12,2 C 83 % 1092,7 hPa 0,0 mm - - 0 0,0 km/h (0 Bft)
04.01.2011 22:50 -12,1 C 83 % 1092,7 hPa 0,0 mm - - 0 0,0 km/h (0 Bft)
04.01.2011 22:55 -11,9 C 84 % 1092,6 hPa 0,0 mm - - 0 0,0 km/h (0 Bft)
04.01.2011 23:00 -11,8 C 84 % 1092,8 hPa 0,0 mm - - 0 0,0 km/h (0 Bft)
04.01.2011 23:05 -11,8 C 84 % 1092,7 hPa 0,0 mm - - 0 0,0 km/h (0 Bft)
04.01.2011 23:10 -11,9 C 83 % 1092,6 hPa 0,0 mm - - 0 0,0 km/h (0 Bft)
04.01.2011 23:15 -11,9 C 83 % 1092,6 hPa 0,0 mm - - 0 0,0 km/h (0 Bft)
04.01.2011 23:20 -11,9 C 83 % 1092,6 hPa 0,0 mm - - 0 0,0 km/h (0 Bft)
04.01.2011 23:25 -12,0 C 83 % 1092,7 hPa 0,0 mm - - 0 0,0 km/h (0 Bft)
04.01.2011 23:30 -12,0 C 83 % 1092,6 hPa 0,0 mm - - 0 0,0 km/h (0 Bft)
04.01.2011 23:35 -11,9 C 83 % 1092,4 hPa 0,0 mm - - 0 0,0 km/h (0 Bft)
04.01.2011 23:40 -11,9 C 83 % 1092,5 hPa 0,0 mm - - 0 0,0 km/h (0 Bft)
04.01.2011 23:45 -11,6 C 84 % 1092,3 hPa 0,0 mm - - 0 0,0 km/h (0 Bft)
04.01.2011 23:50 -11,7 C 83 % 1092,3 hPa 0,0 mm - - 0 0,0 km/h (0 Bft)
04.01.2011 23:55 -11,6 C 83 % 1092,2 hPa 0,0 mm - - 0 0,0 km/h (0 Bft)
_ Min-Zeit 08:25 11:25 14:50 - - - 00:00
Minimum _ -17,3 C 57 % 1092,2 hPa - - - 0,0 km/h (0 Bft)
_ Max-Zeit 11:20 10:55 00:00 00:00 - - 20:35
Maximum _ -4,5 C 88 % 1098,5 hPa 0,0 mm - - 3,6 km/h
SW (1 Bft)
Durchschnitt _ -11,6 C 78 % 1094,9 hPa #0,0 mm N - 0,1 km/h (0 Bft)